Regional Weather Roundup
Issued by NWS Charleston, SC

Current Version | Previous Version | Graphics & Text | Print | Product List | Glossary On
Versions: 1 2 3 4 5 6 7 8 9 10 11 12 13 14 15 16 17 18 19 20 21 22 23 24 25 26 27 28 29 30 31 32 33 34 35 36 37 38 39 40 41 42 43 44 45 46 47 48 49 50
000
ASUS42 KCHS 171425
RWRCHS

REGIONAL WEATHER ROUNDUP
NATIONAL WEATHER SERVICE CHARLESTON SC
1000 AM EDT WED SEP 17 2014

NOTE: "FAIR" INDICATES FEW OR NO CLOUDS BELOW 12,000 FEET WITH NO
SIGNIFICANT WEATHER AND/OR OBSTRUCTIONS TO VISIBILITY.

NOT ALL STATIONS ARE QUALITY CONTROLLED BY THE NATIONAL
WEATHER SERVICE. USE DATA WITH CAUTION...ESPECIALLY
DEWPOINT OBSERVATIONS.

SCZ027-030-031-034>040-042>050-171500-
...SOUTH CAROLINA...

CITY           SKY/WX    TMP DP  RH WIND       PRES   REMARKS
N CHARLESTON   MOSUNNY   81  69  67 CALM      29.93R
WATERFRONT PRK   N/A     82 N/A N/A CALM        N/A
FORT JOHNSON   NOT AVBL
MOUNT PLEASANT FAIR      81  73  78 N5        29.93R
JOHNS ISLAND   SUNNY     84  84 100 CALM      29.93R HX 104
PINOPOLIS        N/A     81  72  74 W2        29.87R
MONCKS CORNER    N/A     79  75  89 E6        29.95R
SUMMERVILLE    FAIR      79  72  78 SE3       29.94S
BEAUFORT MCAS  CLOUDY    75  32  20 NW5       29.94R
BEAUFORT ARPT  PTSUNNY   79  73  83 CALM      29.93S
HILTON HEAD IS PTSUNNY   79  75  89 NE6       29.94
GEORGETOWN     NOT AVBL
WALTERBORO     CLOUDY    72 N/A N/A W3        29.95S
ORANGEBURG     PTSUNNY   73  68  84 CALM      29.95R
BARNWELL       CLOUDY    73  70  88 CALM      29.96S
AIKEN          CLOUDY    70  70 100 SE5       30.00R
MANNING        FAIR      77  70  78 NE7       29.96R
KINGSTREE      NOT AVBL
COLUMBIA       MOSUNNY   75  65  70 CALM      29.96R
SUMTER         PTSUNNY   73  64  73 NE6       29.96R
FLORENCE       CLOUDY    68  65  90 E8        29.98R
MYRTLE BEACH   SUNNY     73  64  73 N7        29.95S
N MYRTLE BEACH SUNNY     75  65  70 N10       29.94F

$$

GAZ063-065-086>088-099>101-113>116-118-119-134-136>141-150-171500-
...GEORGIA...

CITY           SKY/WX    TMP DP  RH WIND       PRES   REMARKS
SAVANNAH ARPT  SUNNY     80  69  69 CALM      29.94R
HUNTER AAF     SUNNY     79  71  76 N3        29.92R
FORT STEWART   SUNNY     78  71  78 CALM      29.93S
STATESBORO     NOT AVBL
SYLVANIA       PTSUNNY   75  74  95 CALM      29.95R
CLAXTON        PTSUNNY  N/A N/A N/A CALM      29.95S
THOMSON        CLOUDY    74  74 100 CALM      30.01R
AUGUSTA-BUSH   CLOUDY    72  69  90 E5        29.95R
AUGUSTA-DANIEL PTSUNNY   74  70  87 SE6       29.97R FOG
SWAINSBORO     FAIR      79  77  94 CALM      29.96S
VIDALIA        SUNNY     77  72  83 CALM      29.96R
ALMA           SUNNY     77  71  82 CALM      29.95S
WAYCROSS       SUNNY     81  76  83 CALM      29.95S
JESUP          FAIR      84  73  70 NE3       29.94S HX  91
BRUNSWICK      MOSUNNY   81  70  69 NW3       29.95R
SAINT SIMONS   MOSUNNY   77  70  79 NW7       29.93S

$$

SCZ027-028-034-036>038-045-046-048>050-GAZ119-141-171500-
...LAKE AND SUPPLEMENTAL COASTAL OBSERVATIONS...

STATION/POSITION TIME  TEMP    WIND        PRES    WAVE   SWELL
                       AIR SEA DIR/SP/G            HT/PER HT/PER/DIR
                 (UTC) (F)     (DEG/KT/KT) (MB)    (FT/S) (FT/S/D)
UPR LAKE MARION  NOT AVBL
WINYAH BAY       1400   74      30/  8     1014.0S
LAKE MURRAY      1300   72      CALM  /  2 1014.2R
ACE BASIN NERRS  1400   76        CALM     1013.0S
FORT PULASKI     1400   78      20/  6/  7 1013.8R
SAPELO ISLAND    1400   80     350/  5     1014.0S

$$

ANZ835-935-AMZ111-154-330-350-352-354-374-450-454-472-171500-
...C-MAN AND BUOY OBSERVATIONS...

STATION/POSITION TIME  TEMP    WIND        PRES    WAVE   SWELL
                       AIR SEA DIR/SP/G            HT/PER HT/PER/DIR
                 (UTC) (F)     (DEG/KT/KT) (MB)    (FT/S) (FT/S/D)
FOLLY BEACH CMAN 1400   80     120/  2/  4 1013.7R
BUOY 41004       1400   79 83   30/ 10/ 14 1012.6R   3/16   2/16
BUOY 41008       1400   80 84  360/  8/ 10 1013.2S   2/13   2/ 70/13
5E ST. MARYS GA  1400      83                N/A     2/12   2/110/12
FRYING PAN BUOY  NOT AVBL
BUOY 41025       1400   71      70/  8/ 10 1014.3R   5/14   5/110/14
CAPE LOOKOUT NC  1400   78      40/  9/ 10 1013.3R
BUOY 41002       1341   78 82  190/  6/  8 1012.7F   6/14   7/110/14
BUOY 41010       1400   82 85  260/ 16/ 19 1013.1F   4/15   2/150/15
BUOY 41012       NOT AVBL
ST AUGUSTINE FL  1400   76     320/  6/  7 1014.4R
CAPERS NEARSHORE 1300   79      CALM  /  4   N/A
FRIPP NEARSHORE  NOT AVBL


$$



USA.gov is the U.S. government's official web portal to all federal, state and local government web resources and services.